HAL21 KSEA-PHNL

Flight info

Callsign HAL21
Flight time 5h 39m
Altitude 36000
Route HAROB6 HQM SEDAR A331 ZEMOM AUNTI R463 APACK MAGGI3
Aircraft A21N/M-SDE2E3FGHIRWXY/LB1

Departure

Time 2026-05-04 12:33
Airport Seattle–Tacoma International Airport (KSEA)

Arrival

Time 2026-05-04 18:12
Airport Daniel K. Inouye International Airport (PHNL)
Time Latitude Longitude Altitude Speed Heading
2026-05-04 12:18 47.44973 -122.30381 408 ft 0 kts 158°
2026-05-04 12:24 47.44971 -122.30379 408 ft 0 kts 158°
2026-05-04 12:25 47.44969 -122.30378 408 ft 0 kts 158°
2026-05-04 12:25 47.44993 -122.30393 409 ft 3 kts 158°
2026-05-04 12:25 47.45017 -122.30399 410 ft 2 kts 192°
2026-05-04 12:25 47.45019 -122.30399 410 ft 0 kts 194°
2026-05-04 12:27 47.45008 -122.30405 409 ft 4 kts 207°
2026-05-04 12:28 47.44974 -122.30442 408 ft 7 kts 218°
2026-05-04 12:28 47.44922 -122.30502 406 ft 11 kts 218°
2026-05-04 12:28 47.44853 -122.30581 403 ft 13 kts 218°
2026-05-04 12:28 47.44759 -122.30627 400 ft 15 kts 188°
2026-05-04 12:29 47.44640 -122.30635 395 ft 18 kts 181°
2026-05-04 12:29 47.44507 -122.30637 393 ft 19 kts 180°
2026-05-04 12:29 47.44367 -122.30637 388 ft 21 kts 180°
2026-05-04 12:29 47.44215 -122.30634 383 ft 22 kts 180°
2026-05-04 12:30 47.44055 -122.30634 379 ft 23 kts 180°
2026-05-04 12:30 47.43886 -122.30632 371 ft 25 kts 180°
2026-05-04 12:30 47.43704 -122.30633 362 ft 27 kts 180°
2026-05-04 12:30 47.43520 -122.30555 353 ft 28 kts 174°
2026-05-04 12:31 47.43313 -122.30556 338 ft 31 kts 181°
2026-05-04 12:31 47.43175 -122.30735 323 ft 30 kts 295°
2026-05-04 12:31 47.43278 -122.30804 330 ft 0 kts 360°
2026-05-04 12:31 47.43297 -122.30805 331 ft 19 kts 357°
2026-05-04 12:32 47.43665 -122.30807 357 ft 83 kts
2026-05-04 12:32 47.45525 -122.30782 601 ft 162 kts
2026-05-04 12:32 47.46668 -122.30745 990 ft 171 kts
2026-05-04 12:33 47.47900 -122.30540 1333 ft 187 kts 13°
2026-05-04 12:33 47.49196 -122.29959 1729 ft 203 kts 30°
2026-05-04 12:33 47.50233 -122.28489 2126 ft 219 kts 63°
2026-05-04 12:33 47.50538 -122.26214 2522 ft 238 kts 100°
2026-05-04 12:34 47.49784 -122.23993 2916 ft 257 kts 134°
2026-05-04 12:34 47.48244 -122.22669 3480 ft 268 kts 169°
2026-05-04 12:34 47.46394 -122.22890 4193 ft 271 kts 204°
2026-05-04 12:34 47.44943 -122.24588 4897 ft 272 kts 237°
2026-05-04 12:35 47.44032 -122.26992 5605 ft 274 kts 246°
2026-05-04 12:35 47.43216 -122.29555 6312 ft 277 kts 246°
2026-05-04 12:35 47.42384 -122.32106 7026 ft 280 kts 245°
2026-05-04 12:35 47.41512 -122.34650 7678 ft 284 kts 244°
2026-05-04 12:36 47.40585 -122.37257 8326 ft 288 kts 243°
2026-05-04 12:36 47.39632 -122.39864 8963 ft 292 kts 243°
2026-05-04 12:36 47.38668 -122.42467 9567 ft 296 kts 242°
2026-05-04 12:36 47.37668 -122.45141 10159 ft 300 kts 242°
2026-05-04 12:37 47.36631 -122.47887 10523 ft 314 kts 242°
2026-05-04 12:37 47.35543 -122.50756 10801 ft 329 kts 242°
2026-05-04 12:37 47.34403 -122.53758 11088 ft 344 kts 242°
2026-05-04 12:37 47.33231 -122.56836 11553 ft 351 kts 242°
2026-05-04 12:38 47.32021 -122.60004 12149 ft 354 kts 242°
2026-05-04 12:38 47.30818 -122.63153 12729 ft 357 kts 242°
2026-05-04 12:38 47.29594 -122.66354 13303 ft 361 kts 242°
2026-05-04 12:38 47.28368 -122.69558 13852 ft 364 kts 242°
2026-05-04 12:39 47.27121 -122.72811 14365 ft 368 kts 242°
2026-05-04 12:39 47.25869 -122.76076 14868 ft 371 kts 242°
2026-05-04 12:39 47.24592 -122.79402 15411 ft 374 kts 242°
2026-05-04 12:39 47.23315 -122.82724 15881 ft 378 kts 242°
2026-05-04 12:40 47.22018 -122.86089 16371 ft 381 kts 242°
2026-05-04 12:40 47.20716 -122.89468 16874 ft 384 kts 242°
2026-05-04 12:40 47.19389 -122.92909 17395 ft 387 kts 242°
2026-05-04 12:40 47.18073 -122.96314 17901 ft 391 kts 242°
2026-05-04 12:41 47.16720 -122.99809 18265 ft 394 kts 242°
2026-05-04 12:41 47.15371 -123.03290 18740 ft 398 kts 242°
2026-05-04 12:41 47.13999 -123.06825 19175 ft 401 kts 242°
2026-05-04 12:41 47.12614 -123.10386 19574 ft 404 kts 242°
2026-05-04 12:42 47.11223 -123.13961 20008 ft 407 kts 242°
2026-05-04 12:42 47.09813 -123.17583 20427 ft 410 kts 242°
2026-05-04 12:42 47.08399 -123.21207 20844 ft 412 kts 242°
2026-05-04 12:42 47.06977 -123.24846 21240 ft 415 kts 242°
2026-05-04 12:43 47.05541 -123.28518 21660 ft 418 kts 242°
2026-05-04 12:43 47.04102 -123.32189 22057 ft 421 kts 242°
2026-05-04 12:43 47.02641 -123.35915 22472 ft 423 kts 242°
2026-05-04 12:43 47.01176 -123.39645 22892 ft 426 kts 242°
2026-05-04 12:44 46.99687 -123.43430 23278 ft 429 kts 242°
2026-05-04 12:44 46.98198 -123.47212 23655 ft 432 kts 242°
2026-05-04 12:44 46.96694 -123.51023 24038 ft 434 kts 242°
2026-05-04 12:44 46.95198 -123.54813 24421 ft 437 kts 242°
2026-05-04 12:45 46.93670 -123.58678 24765 ft 440 kts 242°
2026-05-04 12:45 46.92141 -123.62537 25115 ft 442 kts 242°
2026-05-04 12:45 46.90592 -123.66443 25478 ft 445 kts 242°
2026-05-04 12:45 46.89055 -123.70313 25813 ft 447 kts 242°
2026-05-04 12:46 46.87483 -123.74265 26140 ft 450 kts 242°
2026-05-04 12:46 46.85904 -123.78228 26459 ft 452 kts 242°
2026-05-04 12:46 46.84342 -123.82143 26751 ft 455 kts 242°
2026-05-04 12:46 46.82736 -123.86163 27043 ft 457 kts 242°
2026-05-04 12:47 46.81137 -123.90158 27348 ft 459 kts 241°
2026-05-04 12:47 46.79532 -123.94166 27648 ft 460 kts 241°
2026-05-04 12:47 46.77905 -123.98216 27922 ft 462 kts 242°
2026-05-04 12:47 46.76284 -124.02248 28182 ft 464 kts 241°
2026-05-04 12:48 46.74666 -124.06267 28428 ft 466 kts 242°
2026-05-04 12:48 46.73027 -124.10332 28649 ft 469 kts 241°
2026-05-04 12:48 46.71380 -124.14415 28888 ft 470 kts 241°
2026-05-04 12:48 46.69706 -124.18555 29103 ft 473 kts 241°
2026-05-04 12:49 46.68047 -124.22652 29276 ft 475 kts 241°
2026-05-04 12:49 46.66362 -124.26809 29477 ft 477 kts 241°
2026-05-04 12:49 46.64684 -124.30936 29688 ft 479 kts 241°
2026-05-04 12:49 46.62980 -124.35127 29891 ft 480 kts 241°
2026-05-04 12:50 46.61293 -124.39269 30102 ft 481 kts 241°
2026-05-04 12:50 46.59601 -124.43417 30339 ft 481 kts 241°
2026-05-04 12:50 46.57884 -124.47618 30585 ft 481 kts 241°
2026-05-04 12:50 46.56195 -124.51743 30819 ft 481 kts 241°
2026-05-04 12:51 46.54491 -124.55902 31033 ft 481 kts 241°
2026-05-04 12:51 46.52776 -124.60083 31229 ft 482 kts 241°
2026-05-04 12:51 46.51068 -124.64235 31433 ft 482 kts 241°
2026-05-04 12:51 46.49345 -124.68424 31626 ft 482 kts 240°
2026-05-04 12:52 46.47623 -124.72598 31801 ft 483 kts 240°
2026-05-04 12:52 46.45925 -124.76707 31990 ft 483 kts 240°
2026-05-04 12:52 46.44204 -124.80871 32202 ft 482 kts 240°
2026-05-04 12:52 46.42466 -124.85066 32395 ft 483 kts 240°
2026-05-04 12:53 46.40758 -124.89180 32594 ft 482 kts 240°
2026-05-04 12:53 46.39034 -124.93331 32768 ft 483 kts 241°
2026-05-04 12:53 46.37312 -124.97472 32931 ft 483 kts 240°
2026-05-04 12:53 46.35566 -125.01662 33090 ft 484 kts 240°
2026-05-04 12:54 46.33843 -125.05791 33268 ft 483 kts 240°
2026-05-04 12:54 46.32105 -125.09950 33446 ft 483 kts 240°
2026-05-04 12:54 46.30382 -125.14069 33606 ft 484 kts 240°
2026-05-04 12:54 46.28637 -125.18233 33758 ft 484 kts 240°
2026-05-04 12:55 46.26907 -125.22351 33898 ft 485 kts 240°
2026-05-04 12:55 46.25149 -125.26533 34049 ft 485 kts 240°
2026-05-04 12:55 46.23412 -125.30654 34229 ft 485 kts 240°
2026-05-04 12:55 46.21648 -125.34834 34409 ft 484 kts 240°
2026-05-04 12:56 46.19920 -125.38927 34583 ft 484 kts 240°
2026-05-04 12:56 46.18161 -125.43085 34747 ft 484 kts 240°
2026-05-04 12:56 46.16423 -125.47191 34889 ft 484 kts 240°
2026-05-04 12:56 46.14667 -125.51331 35030 ft 484 kts 240°
2026-05-04 12:57 46.12911 -125.55466 35153 ft 485 kts 240°
2026-05-04 12:57 46.11163 -125.59571 35297 ft 485 kts 240°
2026-05-04 12:57 46.09390 -125.63734 35434 ft 485 kts 240°
2026-05-04 12:57 46.07634 -125.67851 35545 ft 485 kts 240°
2026-05-04 12:58 46.05883 -125.71950 35661 ft 485 kts 239°
2026-05-04 12:58 46.04116 -125.76074 35782 ft 485 kts 239°
2026-05-04 12:58 46.02349 -125.80197 35871 ft 486 kts 240°
2026-05-04 12:59 45.98794 -125.88470 35904 ft 487 kts 239°
2026-05-04 12:59 45.95244 -125.96709 35913 ft 489 kts 239°
2026-05-04 13:00 45.91666 -126.04994 35924 ft 489 kts 239°
2026-05-04 13:00 45.88094 -126.13236 35925 ft 488 kts 239°
2026-05-04 13:01 45.84507 -126.21482 35926 ft 488 kts 239°
2026-05-04 13:01 45.80927 -126.29697 35927 ft 488 kts 239°
2026-05-04 13:02 45.77331 -126.37917 35927 ft 488 kts 240°
2026-05-04 13:02 45.73730 -126.46130 35926 ft 489 kts 239°
2026-05-04 13:03 45.70117 -126.54348 35928 ft 489 kts 239°
2026-05-04 13:03 45.66502 -126.62543 35927 ft 489 kts 239°
2026-05-04 13:04 45.62875 -126.70742 35930 ft 489 kts 238°
2026-05-04 13:04 45.59257 -126.78897 35932 ft 489 kts 238°
2026-05-04 13:05 45.55637 -126.87029 35935 ft 489 kts 238°
2026-05-04 13:05 45.51978 -126.95225 35936 ft 489 kts 238°
2026-05-04 13:06 45.48325 -127.03391 35933 ft 490 kts 238°
2026-05-04 13:06 45.44668 -127.11540 35930 ft 490 kts 238°
2026-05-04 13:07 45.41016 -127.19652 35934 ft 491 kts 238°
2026-05-04 13:07 45.37339 -127.27793 35929 ft 491 kts 238°
2026-05-04 13:08 45.33655 -127.35935 35930 ft 491 kts 238°
2026-05-04 13:08 45.29974 -127.44041 35931 ft 490 kts 238°
2026-05-04 13:09 45.26290 -127.52132 35937 ft 491 kts 238°
2026-05-04 13:09 45.22579 -127.60259 35938 ft 491 kts 238°
2026-05-04 13:10 45.18890 -127.68318 35937 ft 491 kts 237°
2026-05-04 13:10 45.15161 -127.76434 35942 ft 491 kts 237°
2026-05-04 13:11 45.11447 -127.84497 35939 ft 491 kts 237°
2026-05-04 13:11 45.07720 -127.92567 35938 ft 491 kts 237°
2026-05-04 13:12 45.04006 -128.00588 35945 ft 491 kts 237°
2026-05-04 13:12 45.00254 -128.08670 35945 ft 492 kts 237°
2026-05-04 13:13 44.96521 -128.16682 35951 ft 492 kts 237°
2026-05-04 13:13 44.92778 -128.24692 35952 ft 492 kts 237°
2026-05-04 13:14 44.89011 -128.32735 35953 ft 492 kts 237°
2026-05-04 13:14 44.85251 -128.40742 35958 ft 492 kts 237°
2026-05-04 13:15 44.81466 -128.48779 35959 ft 492 kts 237°
2026-05-04 13:15 44.77702 -128.56744 35962 ft 492 kts 237°
2026-05-04 13:16 44.73920 -128.64731 35961 ft 492 kts 237°
2026-05-04 13:16 44.70129 -128.72711 35962 ft 492 kts 236°
2026-05-04 13:17 44.66339 -128.80670 35965 ft 492 kts 236°
2026-05-04 13:17 44.62553 -128.88599 35965 ft 491 kts 236°
2026-05-04 13:18 44.58741 -128.96562 35968 ft 492 kts 236°
2026-05-04 13:18 44.54941 -129.04472 35965 ft 492 kts 236°
2026-05-04 13:19 44.51141 -129.12366 35967 ft 492 kts 236°
2026-05-04 13:19 44.47315 -129.20285 35962 ft 492 kts 236°
2026-05-04 13:20 44.43488 -129.28186 35968 ft 492 kts 236°
2026-05-04 13:20 44.39675 -129.36044 35969 ft 492 kts 236°
2026-05-04 13:21 44.35837 -129.43927 35972 ft 492 kts 236°
2026-05-04 13:21 44.31997 -129.51794 35978 ft 492 kts 236°
2026-05-04 13:22 44.28133 -129.59688 35983 ft 492 kts 236°
2026-05-04 13:22 44.24289 -129.67525 35983 ft 492 kts 235°
2026-05-04 13:23 44.20433 -129.75359 35983 ft 492 kts 234°
2026-05-04 13:23 44.16561 -129.83205 35985 ft 492 kts 234°
2026-05-04 13:24 44.12708 -129.90996 35985 ft 492 kts 235°
2026-05-04 13:24 44.08847 -129.98843 35985 ft 492 kts 237°
2026-05-04 13:25 44.03334 -130.10803 35989 ft 491 kts 237°
2026-05-04 13:25 43.99659 -130.18770 35988 ft 491 kts 237°
2026-05-04 13:26 43.95981 -130.26720 35989 ft 493 kts 237°
2026-05-04 13:26 43.92282 -130.34680 35990 ft 493 kts 237°
2026-05-04 13:27 43.88565 -130.42665 35990 ft 493 kts 237°
2026-05-04 13:27 43.84868 -130.50591 35996 ft 492 kts 237°
2026-05-04 13:28 43.81134 -130.58562 36002 ft 492 kts 237°
2026-05-04 13:28 43.77434 -130.66440 36001 ft 492 kts 236°
2026-05-04 13:29 43.73695 -130.74385 36007 ft 493 kts 236°
2026-05-04 13:29 43.69967 -130.82285 36008 ft 493 kts 236°
2026-05-04 13:30 43.66218 -130.90207 36010 ft 493 kts 236°
2026-05-04 13:30 43.62481 -130.98082 36014 ft 492 kts 236°
2026-05-04 13:31 43.58746 -131.05925 36016 ft 493 kts 236°
2026-05-04 13:31 43.54993 -131.13796 36015 ft 493 kts 236°
2026-05-04 13:32 43.51226 -131.21670 36016 ft 493 kts 236°
2026-05-04 13:32 43.47456 -131.29527 36018 ft 492 kts 236°
2026-05-04 13:33 43.43689 -131.37358 36013 ft 492 kts 236°
2026-05-04 13:33 43.39917 -131.45180 36019 ft 493 kts 236°
2026-05-04 13:34 43.36154 -131.52962 36018 ft 493 kts 236°
2026-05-04 13:34 43.32352 -131.60811 36021 ft 493 kts 236°
2026-05-04 13:35 43.26685 -131.72458 36023 ft 492 kts 236°
2026-05-04 13:36 43.22894 -131.80222 36019 ft 492 kts 235°
2026-05-04 13:36 43.19092 -131.87999 36022 ft 492 kts 235°
2026-05-04 13:37 43.15279 -131.95769 36023 ft 491 kts 235°
2026-05-04 13:37 43.11489 -132.03471 36027 ft 491 kts 235°
2026-05-04 13:38 43.07674 -132.11206 36027 ft 491 kts 235°
2026-05-04 13:38 43.03849 -132.18941 36031 ft 492 kts 236°
2026-05-04 13:39 43.00046 -132.26614 36033 ft 492 kts 235°
2026-05-04 13:39 42.96204 -132.34341 36036 ft 491 kts 235°
2026-05-04 13:40 42.92381 -132.42015 36037 ft 490 kts 236°
2026-05-04 13:40 42.88570 -132.49641 36041 ft 490 kts 236°
2026-05-04 13:41 42.84719 -132.57330 36041 ft 490 kts 236°
2026-05-04 13:41 42.80901 -132.64934 36045 ft 489 kts 236°
2026-05-04 13:42 42.75126 -132.76399 36047 ft 489 kts 235°
2026-05-04 13:42 42.71291 -132.83984 36050 ft 488 kts 235°
2026-05-04 13:43 42.67449 -132.91568 36052 ft 489 kts 235°
2026-05-04 13:43 42.63620 -132.99107 36055 ft 489 kts 235°
2026-05-04 13:44 42.59751 -133.06703 36056 ft 489 kts 235°
2026-05-04 13:44 42.55888 -133.14269 36059 ft 489 kts 235°
2026-05-04 13:45 42.52022 -133.21823 36061 ft 488 kts 235°
2026-05-04 13:45 42.48165 -133.29335 36061 ft 488 kts 235°
2026-05-04 13:46 42.44303 -133.36845 36063 ft 488 kts 235°
2026-05-04 13:46 42.40439 -133.44338 36061 ft 487 kts 235°
2026-05-04 13:47 42.36569 -133.51822 36063 ft 488 kts 235°
2026-05-04 13:47 42.32688 -133.59314 36067 ft 488 kts 235°
2026-05-04 13:48 42.28804 -133.66788 36062 ft 487 kts 234°
2026-05-04 13:48 42.24904 -133.74277 36065 ft 486 kts 234°
2026-05-04 13:49 42.21037 -133.81680 36062 ft 486 kts 234°
2026-05-04 13:49 42.17135 -133.89136 36064 ft 486 kts 235°
2026-05-04 13:50 42.13242 -133.96553 36065 ft 486 kts 235°
2026-05-04 13:50 42.09362 -134.03928 36073 ft 485 kts 235°
2026-05-04 13:51 42.05460 -134.11330 36068 ft 485 kts 235°
2026-05-04 13:51 42.01578 -134.18675 36080 ft 485 kts 235°
2026-05-04 13:52 41.95726 -134.29715 36082 ft 485 kts 235°
2026-05-04 13:53 41.91799 -134.37094 36086 ft 484 kts 235°
2026-05-04 13:53 41.87891 -134.44424 36087 ft 484 kts 235°
2026-05-04 13:54 41.82039 -134.55370 36095 ft 482 kts 235°
2026-05-04 13:55 41.76203 -134.66246 36098 ft 482 kts 235°
2026-05-04 13:55 41.70351 -134.77112 36106 ft 482 kts 235°
2026-05-04 13:56 41.66427 -134.84374 36104 ft 481 kts 235°
2026-05-04 13:57 41.60578 -134.95172 36109 ft 480 kts 235°
2026-05-04 13:58 41.52756 -135.09551 36114 ft 480 kts 235°
2026-05-04 13:58 41.46876 -135.20316 36114 ft 479 kts 235°
2026-05-04 13:59 41.42970 -135.27438 36114 ft 478 kts 236°
2026-05-04 14:00 41.37104 -135.38117 36120 ft 477 kts 236°
2026-05-04 14:00 41.31252 -135.48732 36120 ft 476 kts 236°
2026-05-04 14:01 41.27322 -135.55843 36122 ft 476 kts 236°
2026-05-04 14:02 41.21473 -135.66386 36125 ft 475 kts 236°
2026-05-04 14:02 41.17574 -135.73401 36126 ft 474 kts 236°
2026-05-04 14:03 41.13666 -135.80408 36129 ft 473 kts 236°
2026-05-04 14:03 41.09749 -135.87419 36131 ft 472 kts 236°
2026-05-04 14:04 41.03892 -135.97873 36132 ft 473 kts 236°
2026-05-04 14:04 41.00005 -136.04791 36136 ft 471 kts 236°
2026-05-04 14:05 40.94130 -136.15221 36135 ft 470 kts 236°
2026-05-04 14:06 40.90250 -136.22087 36132 ft 469 kts 236°
2026-05-04 14:06 40.86353 -136.28972 36133 ft 468 kts 236°
2026-05-04 14:07 40.82477 -136.35796 36133 ft 467 kts 237°
2026-05-04 14:07 40.78590 -136.42633 36139 ft 465 kts 236°
2026-05-04 14:08 40.74725 -136.49414 36138 ft 465 kts 237°
2026-05-04 14:08 40.70844 -136.56207 36137 ft 464 kts 237°
2026-05-04 14:09 40.65032 -136.66353 36137 ft 463 kts 236°
2026-05-04 14:10 40.59242 -136.76427 36147 ft 461 kts 236°
2026-05-04 14:10 40.55373 -136.83142 36145 ft 461 kts 236°
2026-05-04 14:11 40.51504 -136.89841 36146 ft 460 kts 236°
2026-05-04 14:11 40.45702 -136.99861 36150 ft 459 kts 236°
2026-05-04 14:12 40.41842 -137.06506 36152 ft 459 kts 236°
2026-05-04 14:13 40.36068 -137.16428 36158 ft 456 kts 236°
2026-05-04 14:13 40.32236 -137.22994 36160 ft 456 kts 236°
2026-05-04 14:14 40.28387 -137.29572 36165 ft 454 kts 236°
2026-05-04 14:14 40.22627 -137.39395 36167 ft 454 kts 236°
2026-05-04 14:15 40.14985 -137.52374 36164 ft 452 kts 236°
2026-05-04 14:16 40.09254 -137.62077 36163 ft 451 kts 236°
2026-05-04 14:17 40.03533 -137.71735 36167 ft 449 kts 235°
2026-05-04 14:18 39.97801 -137.81381 36172 ft 448 kts 235°
2026-05-04 14:19 39.90206 -137.94116 36187 ft 447 kts 235°
2026-05-04 14:19 39.86413 -138.00455 36191 ft 445 kts 235°
2026-05-04 14:20 39.82620 -138.06782 36195 ft 444 kts 235°
2026-05-04 14:20 39.78820 -138.13107 36196 ft 443 kts 235°
2026-05-04 14:21 39.73131 -138.22536 36200 ft 442 kts 235°
2026-05-04 14:21 39.69350 -138.28789 36199 ft 442 kts 235°
2026-05-04 14:22 39.65576 -138.35017 36201 ft 441 kts 235°
2026-05-04 14:22 39.61788 -138.41261 36200 ft 442 kts 235°
2026-05-04 14:23 39.56103 -138.50606 36202 ft 440 kts 235°
2026-05-04 14:24 39.52309 -138.56827 36201 ft 439 kts 235°
2026-05-04 14:24 39.48548 -138.62981 36202 ft 439 kts 235°
2026-05-04 14:25 39.44765 -138.69161 36203 ft 439 kts 234°
2026-05-04 14:25 39.39071 -138.78439 36205 ft 438 kts 234°
2026-05-04 14:26 39.35293 -138.84582 36206 ft 438 kts 234°
2026-05-04 14:26 39.31535 -138.90683 36213 ft 437 kts 234°
2026-05-04 14:27 39.27759 -138.96794 36215 ft 437 kts 234°
2026-05-04 14:27 39.23977 -139.02905 36215 ft 436 kts 234°
2026-05-04 14:28 39.20210 -139.08980 36215 ft 435 kts 234°
2026-05-04 14:28 39.16437 -139.15056 36217 ft 435 kts 234°
2026-05-04 14:29 39.08903 -139.27153 36216 ft 433 kts 234°
2026-05-04 14:30 39.05133 -139.33186 36216 ft 432 kts 234°
2026-05-04 14:31 38.99490 -139.42198 36217 ft 432 kts 234°
2026-05-04 14:32 38.91997 -139.54128 36217 ft 431 kts 234°
2026-05-04 14:32 38.88230 -139.60106 36218 ft 430 kts 234°
2026-05-04 14:33 38.84483 -139.66045 36218 ft 429 kts 233°
2026-05-04 14:33 38.80747 -139.71951 36218 ft 429 kts 233°
2026-05-04 14:34 38.77000 -139.77867 36222 ft 429 kts 233°
2026-05-04 14:34 38.73251 -139.83774 36219 ft 429 kts 233°
2026-05-04 14:35 38.69485 -139.89697 36222 ft 429 kts 233°
2026-05-04 14:35 38.65733 -139.95587 36225 ft 428 kts 233°
2026-05-04 14:36 38.61968 -140.01486 36225 ft 428 kts 233°
2026-05-04 14:36 38.58234 -140.07326 36224 ft 427 kts 233°
2026-05-04 14:37 38.54483 -140.13182 36228 ft 426 kts 233°
2026-05-04 14:37 38.50756 -140.18990 36229 ft 425 kts 233°
2026-05-04 14:38 38.46993 -140.24844 36229 ft 425 kts 233°
2026-05-04 14:38 38.43256 -140.30649 36229 ft 424 kts 233°
2026-05-04 14:39 38.39528 -140.36427 36228 ft 423 kts 233°
2026-05-04 14:39 38.35802 -140.42192 36228 ft 422 kts 233°
2026-05-04 14:40 38.30223 -140.50806 36229 ft 421 kts 233°
2026-05-04 14:40 38.26493 -140.56551 36225 ft 419 kts 233°
2026-05-04 14:41 38.22803 -140.62225 36226 ft 419 kts 232°
2026-05-04 14:42 38.15371 -140.73624 36225 ft 418 kts 232°
2026-05-04 14:42 38.11665 -140.79292 36220 ft 418 kts 232°
2026-05-04 14:43 38.07959 -140.84952 36217 ft 418 kts 232°
2026-05-04 14:43 38.04249 -140.90605 36217 ft 418 kts 231°
2026-05-04 14:44 38.00562 -140.96214 36216 ft 417 kts 232°
2026-05-04 14:44 37.96867 -141.01828 36217 ft 416 kts 231°
2026-05-04 14:45 37.93161 -141.07448 36216 ft 416 kts 231°
2026-05-04 14:45 37.89462 -141.13046 36220 ft 416 kts 231°
2026-05-04 14:46 37.85747 -141.18660 36221 ft 415 kts 231°
2026-05-04 14:46 37.82045 -141.24246 36222 ft 415 kts 231°
2026-05-04 14:47 37.78371 -141.29779 36226 ft 414 kts 231°
2026-05-04 14:47 37.74656 -141.35362 36225 ft 414 kts 231°
2026-05-04 14:48 37.70962 -141.40906 36227 ft 414 kts 231°
2026-05-04 14:48 37.67271 -141.46436 36229 ft 412 kts 231°
2026-05-04 14:49 37.63593 -141.51938 36228 ft 412 kts 231°
2026-05-04 14:49 37.59901 -141.57451 36232 ft 411 kts 231°
2026-05-04 14:50 37.56218 -141.62939 36232 ft 411 kts 231°
2026-05-04 14:50 37.52535 -141.68424 36232 ft 411 kts 231°
2026-05-04 14:51 37.48856 -141.73888 36234 ft 411 kts 231°
2026-05-04 14:51 37.45163 -141.79366 36234 ft 411 kts 230°
2026-05-04 14:52 37.41491 -141.84805 36235 ft 409 kts 230°
2026-05-04 14:52 37.37795 -141.90269 36236 ft 409 kts 230°
2026-05-04 14:53 37.34119 -141.95692 36237 ft 409 kts 230°
2026-05-04 14:53 37.33360 -141.96812 35976 ft 409 kts 230°
2026-05-04 14:53 37.31527 -141.99524 35986 ft 413 kts 230°
2026-05-04 14:54 37.27775 -142.05041 35999 ft 420 kts 230°
2026-05-04 14:54 37.23954 -142.10651 36001 ft 427 kts 230°
2026-05-04 14:55 37.20056 -142.16365 36001 ft 432 kts 230°
2026-05-04 14:55 37.16157 -142.22073 36001 ft 433 kts 230°
2026-05-04 14:56 37.12232 -142.27808 36001 ft 433 kts 230°
2026-05-04 14:56 37.08335 -142.33495 36001 ft 433 kts 230°
2026-05-04 14:57 37.04407 -142.39215 36001 ft 433 kts 230°
2026-05-04 14:57 37.00493 -142.44907 36001 ft 433 kts 230°
2026-05-04 14:58 36.96578 -142.50589 36001 ft 433 kts 230°
2026-05-04 14:58 36.92651 -142.56280 36001 ft 433 kts 230°
2026-05-04 14:59 36.88721 -142.61964 36001 ft 433 kts 230°
2026-05-04 15:00 36.82840 -142.70454 36001 ft 433 kts 229°
2026-05-04 15:00 36.78892 -142.76138 36001 ft 433 kts 229°
2026-05-04 15:01 36.73003 -142.84604 36001 ft 433 kts 229°
2026-05-04 15:01 36.69067 -142.90250 36001 ft 433 kts 229°
2026-05-04 15:02 36.65104 -142.95923 36001 ft 433 kts 229°
2026-05-04 15:02 36.61175 -143.01538 36001 ft 433 kts 229°
2026-05-04 15:03 36.57228 -143.07172 36001 ft 433 kts 229°
2026-05-04 15:03 36.53277 -143.12799 36001 ft 433 kts 229°
2026-05-04 15:04 36.49329 -143.18413 36001 ft 433 kts 229°
2026-05-04 15:04 36.45376 -143.24025 36001 ft 433 kts 229°
2026-05-04 15:05 36.41410 -143.29646 36001 ft 433 kts 229°
2026-05-04 15:05 36.37446 -143.35255 36001 ft 433 kts 229°
2026-05-04 15:06 36.33481 -143.40855 36001 ft 433 kts 229°
2026-05-04 15:07 36.27543 -143.49226 36001 ft 433 kts 229°
2026-05-04 15:07 36.23578 -143.54803 36001 ft 433 kts 229°
2026-05-04 15:08 36.19617 -143.60365 36001 ft 433 kts 229°
2026-05-04 15:08 36.15644 -143.65936 36001 ft 432 kts 228°
2026-05-04 15:09 36.11670 -143.71498 36001 ft 432 kts 228°
2026-05-04 15:09 36.07687 -143.77063 36001 ft 432 kts 228°
2026-05-04 15:10 36.01701 -143.85411 36001 ft 432 kts 228°
2026-05-04 15:11 35.95740 -143.93703 36001 ft 432 kts 228°
2026-05-04 15:11 35.91750 -143.99242 36001 ft 432 kts 228°
2026-05-04 15:12 35.87769 -144.04759 36001 ft 432 kts 228°
2026-05-04 15:12 35.83757 -144.10310 36001 ft 432 kts 228°
2026-05-04 15:13 35.79774 -144.15811 36001 ft 432 kts 228°
2026-05-04 15:13 35.75777 -144.21324 36001 ft 432 kts 228°
2026-05-04 15:14 35.71767 -144.26845 36001 ft 432 kts 228°
2026-05-04 15:14 35.67761 -144.32352 36001 ft 432 kts 228°
2026-05-04 15:15 35.63771 -144.37826 36001 ft 432 kts 228°
2026-05-04 15:15 35.59760 -144.43323 36001 ft 432 kts 228°
2026-05-04 15:16 35.53753 -144.51537 36001 ft 432 kts 228°
2026-05-04 15:17 35.47719 -144.59767 36001 ft 433 kts 228°
2026-05-04 15:17 35.41692 -144.67969 36001 ft 433 kts 228°
2026-05-04 15:18 35.37684 -144.73412 36001 ft 433 kts 228°
2026-05-04 15:19 35.31645 -144.81596 36001 ft 433 kts 228°
2026-05-04 15:19 35.25604 -144.89764 36001 ft 433 kts 228°
2026-05-04 15:20 35.21549 -144.95238 36001 ft 433 kts 228°
2026-05-04 15:20 35.17533 -145.00647 36001 ft 432 kts 228°
2026-05-04 15:21 35.13492 -145.06084 36001 ft 432 kts 228°
2026-05-04 15:22 35.07428 -145.14229 36001 ft 432 kts 228°
2026-05-04 15:22 35.01376 -145.22334 36001 ft 433 kts 228°
2026-05-04 15:23 34.97312 -145.27762 36001 ft 433 kts 227°
2026-05-04 15:23 34.93265 -145.33151 36001 ft 433 kts 227°
2026-05-04 15:24 34.85157 -145.43939 36001 ft 433 kts 228°
2026-05-04 15:25 34.81090 -145.49338 36001 ft 433 kts 228°
2026-05-04 15:26 34.74993 -145.57416 36001 ft 433 kts 228°
2026-05-04 15:26 34.68891 -145.65482 36001 ft 433 kts 227°
2026-05-04 15:27 34.62793 -145.73523 36001 ft 433 kts 227°
2026-05-04 15:28 34.56671 -145.81576 36001 ft 433 kts 227°
2026-05-04 15:29 34.50577 -145.89577 36001 ft 433 kts 227°
2026-05-04 15:30 34.36299 -146.08246 36001 ft 433 kts 227°
2026-05-04 15:31 34.30170 -146.16229 36001 ft 433 kts 227°
2026-05-04 15:32 34.19934 -146.29520 36001 ft 433 kts 227°
2026-05-04 15:34 34.09687 -146.42775 36001 ft 432 kts 227°
2026-05-04 15:34 34.03529 -146.50717 36001 ft 432 kts 227°
2026-05-04 15:35 33.97384 -146.58624 36001 ft 432 kts 227°
2026-05-04 15:36 33.91227 -146.66528 36001 ft 432 kts 226°
2026-05-04 15:36 33.87109 -146.71805 36001 ft 433 kts 226°
2026-05-04 15:37 33.83003 -146.77060 36001 ft 433 kts 226°
2026-05-04 15:37 33.78875 -146.82333 36001 ft 433 kts 226°
2026-05-04 15:38 33.74757 -146.87585 36001 ft 433 kts 226°
2026-05-04 15:38 33.70624 -146.92850 36001 ft 433 kts 226°
2026-05-04 15:39 33.66497 -146.98097 36001 ft 433 kts 226°
2026-05-04 15:40 33.60321 -147.05937 36001 ft 433 kts 226°
2026-05-04 15:40 33.56180 -147.11185 36001 ft 433 kts 226°
2026-05-04 15:41 33.52047 -147.16412 36001 ft 433 kts 226°
2026-05-04 15:41 33.47919 -147.21628 36001 ft 433 kts 226°
2026-05-04 15:42 33.43776 -147.26854 36001 ft 433 kts 226°
2026-05-04 15:42 33.39653 -147.32047 36001 ft 433 kts 226°
2026-05-04 15:43 33.35514 -147.37253 36001 ft 433 kts 226°
2026-05-04 15:43 33.31377 -147.42447 36001 ft 433 kts 226°
2026-05-04 15:44 33.27222 -147.47658 36001 ft 433 kts 226°
2026-05-04 15:44 33.23076 -147.52849 36001 ft 433 kts 226°
2026-05-04 15:45 33.18920 -147.58046 36001 ft 433 kts 226°
2026-05-04 15:45 33.14762 -147.63235 36001 ft 433 kts 226°
2026-05-04 15:46 33.10589 -147.68439 36001 ft 433 kts 226°
2026-05-04 15:46 33.06437 -147.73607 36001 ft 433 kts 226°
2026-05-04 15:47 33.02269 -147.78789 36001 ft 433 kts 226°
2026-05-04 15:47 32.98113 -147.83946 36001 ft 433 kts 226°
2026-05-04 15:48 32.93950 -147.89105 36001 ft 433 kts 226°
2026-05-04 15:48 32.87712 -147.96823 36001 ft 433 kts 226°
2026-05-04 15:49 32.83546 -148.01967 36001 ft 433 kts 226°
2026-05-04 15:49 32.79352 -148.07140 36001 ft 433 kts 226°
2026-05-04 15:50 32.75187 -148.12268 36001 ft 433 kts 226°
2026-05-04 15:50 32.71006 -148.17409 36001 ft 433 kts 226°
2026-05-04 15:51 32.66846 -148.22516 36001 ft 433 kts 226°
2026-05-04 15:51 32.62651 -148.27658 36001 ft 433 kts 226°
2026-05-04 15:52 32.58468 -148.32781 36001 ft 433 kts 226°
2026-05-04 15:52 32.54299 -148.37877 36001 ft 433 kts 226°
2026-05-04 15:53 32.50113 -148.42989 36001 ft 433 kts 226°
2026-05-04 15:53 32.45924 -148.48094 36001 ft 433 kts 226°
2026-05-04 15:54 32.41732 -148.53198 36001 ft 433 kts 226°
2026-05-04 15:54 32.37543 -148.58290 36001 ft 433 kts 226°
2026-05-04 15:55 32.33341 -148.63391 36001 ft 433 kts 226°
2026-05-04 15:55 32.29131 -148.68492 36001 ft 433 kts 225°
2026-05-04 15:56 32.24960 -148.73543 36001 ft 433 kts 225°
2026-05-04 15:56 32.20758 -148.78621 36001 ft 433 kts 225°
2026-05-04 15:57 32.16555 -148.83694 36001 ft 433 kts 225°
2026-05-04 15:57 32.12333 -148.88783 36001 ft 433 kts 225°
2026-05-04 15:58 32.08135 -148.93837 36001 ft 433 kts 225°
2026-05-04 15:58 32.03945 -148.98872 36001 ft 433 kts 225°
2026-05-04 15:59 31.99738 -149.03923 36001 ft 433 kts 225°
2026-05-04 15:59 31.95512 -149.08987 36001 ft 433 kts 225°
2026-05-04 16:00 31.91316 -149.14011 36001 ft 433 kts 225°
2026-05-04 16:00 31.87101 -149.19049 36001 ft 433 kts 225°
2026-05-04 16:01 31.82863 -149.24107 36001 ft 433 kts 225°
2026-05-04 16:01 31.78648 -149.29132 36001 ft 433 kts 225°
2026-05-04 16:02 31.74429 -149.34154 36001 ft 432 kts 225°
2026-05-04 16:03 31.68111 -149.41663 36001 ft 432 kts 225°
2026-05-04 16:03 31.63892 -149.46668 36001 ft 432 kts 225°
2026-05-04 16:04 31.59663 -149.51672 36001 ft 432 kts 224°
2026-05-04 16:04 31.52819 -149.58546 36001 ft 432 kts 220°
2026-05-04 16:05 31.48176 -149.63078 36001 ft 432 kts 220°
2026-05-04 16:06 31.41277 -149.69861 36001 ft 432 kts 220°
2026-05-04 16:07 31.32098 -149.78894 36001 ft 432 kts 220°
2026-05-04 16:08 31.22908 -149.87921 36001 ft 432 kts 220°
2026-05-04 16:09 31.11402 -149.99191 36001 ft 432 kts 220°
2026-05-04 16:10 31.02178 -150.08199 36001 ft 432 kts 220°
2026-05-04 16:11 30.92982 -150.17156 36001 ft 432 kts 220°
2026-05-04 16:12 30.79142 -150.30594 36001 ft 432 kts 220°
2026-05-04 16:13 30.69876 -150.39560 36001 ft 433 kts 220°
2026-05-04 16:14 30.60645 -150.48469 36001 ft 433 kts 220°
2026-05-04 16:16 30.49042 -150.59637 36001 ft 433 kts 220°
2026-05-04 16:17 30.37464 -150.70746 36001 ft 433 kts 219°
2026-05-04 16:18 30.28200 -150.79608 36001 ft 433 kts 219°
2026-05-04 16:19 30.16597 -150.90677 36001 ft 433 kts 219°
2026-05-04 16:20 30.04989 -151.01715 36001 ft 433 kts 219°
2026-05-04 16:22 29.93368 -151.12730 36001 ft 433 kts 219°
2026-05-04 16:23 29.79395 -151.25931 36001 ft 433 kts 219°
2026-05-04 16:25 29.65445 -151.39061 36001 ft 433 kts 219°
2026-05-04 16:26 29.49134 -151.54350 36001 ft 433 kts 219°
2026-05-04 16:28 29.37482 -151.65233 36001 ft 433 kts 219°
2026-05-04 16:29 29.21132 -151.80449 36001 ft 433 kts 219°
2026-05-04 16:31 29.09465 -151.91266 36001 ft 433 kts 219°
2026-05-04 16:32 28.95447 -152.04221 36001 ft 433 kts 219°
2026-05-04 16:33 28.86102 -152.12831 36001 ft 433 kts 219°
2026-05-04 16:34 28.79083 -152.19284 36001 ft 433 kts 219°
2026-05-04 16:35 28.65013 -152.32187 36001 ft 433 kts 219°
2026-05-04 16:36 28.57986 -152.38612 36001 ft 433 kts 219°
2026-05-04 16:37 28.50922 -152.45062 36001 ft 433 kts 219°
2026-05-04 16:38 28.41559 -152.53592 36001 ft 433 kts 219°
2026-05-04 16:39 28.29798 -152.64279 36001 ft 433 kts 219°
2026-05-04 16:40 28.20375 -152.72818 36001 ft 433 kts 218°
2026-05-04 16:41 28.08605 -152.83458 36001 ft 433 kts 218°
2026-05-04 16:43 27.96837 -152.94064 36001 ft 433 kts 218°
2026-05-04 16:43 27.89751 -153.00435 36001 ft 433 kts 218°
2026-05-04 16:45 27.75625 -153.13106 36001 ft 433 kts 218°
2026-05-04 16:46 27.63810 -153.23671 36001 ft 433 kts 218°
2026-05-04 16:47 27.54359 -153.32100 36001 ft 433 kts 218°
2026-05-04 16:48 27.44934 -153.40486 36001 ft 433 kts 218°
2026-05-04 16:49 27.35470 -153.48889 36001 ft 433 kts 218°
2026-05-04 16:50 27.26019 -153.57260 36001 ft 433 kts 218°
2026-05-04 16:51 27.18942 -153.63518 36001 ft 433 kts 218°
2026-05-04 16:52 27.09463 -153.71881 36001 ft 433 kts 218°
2026-05-04 16:53 27.02363 -153.78136 36001 ft 433 kts 218°
2026-05-04 16:54 26.92894 -153.86458 36001 ft 433 kts 218°
2026-05-04 16:55 26.78671 -153.98927 36001 ft 433 kts 218°
2026-05-04 16:56 26.66828 -154.09277 36001 ft 433 kts 218°
2026-05-04 16:57 26.59696 -154.15497 36001 ft 433 kts 218°
2026-05-04 16:58 26.50207 -154.23756 36001 ft 433 kts 218°
2026-05-04 17:00 26.35964 -154.36121 36001 ft 433 kts 218°
2026-05-04 17:01 26.24082 -154.46405 36001 ft 433 kts 218°
2026-05-04 17:02 26.14575 -154.54614 36001 ft 433 kts 218°
2026-05-04 17:03 26.07425 -154.60777 36001 ft 433 kts 218°
2026-05-04 17:03 26.00287 -154.66919 36001 ft 433 kts 218°
2026-05-04 17:04 25.90784 -154.75082 36001 ft 433 kts 218°
2026-05-04 17:05 25.81243 -154.83260 36001 ft 433 kts 218°
2026-05-04 17:06 25.74096 -154.89375 36001 ft 433 kts 218°
2026-05-04 17:07 25.67762 -154.94786 36001 ft 433 kts 218°
2026-05-04 17:07 25.62187 -154.99542 36001 ft 433 kts 218°
2026-05-04 17:08 25.55031 -155.05640 36001 ft 433 kts 218°
2026-05-04 17:09 25.50283 -155.09680 36001 ft 433 kts 218°
2026-05-04 17:09 25.45513 -155.13734 36001 ft 433 kts 218°
2026-05-04 17:10 25.33585 -155.23857 36001 ft 433 kts 218°
2026-05-04 17:11 25.28796 -155.27913 36001 ft 433 kts 218°
2026-05-04 17:12 25.21646 -155.33962 36001 ft 433 kts 218°
2026-05-04 17:13 25.09692 -155.44054 36000 ft 433 kts 218°
2026-05-04 17:14 25.00132 -155.52106 36001 ft 433 kts 218°
2026-05-04 17:15 24.92957 -155.58139 36001 ft 433 kts 218°
2026-05-04 17:16 24.83379 -155.66179 36001 ft 433 kts 217°
2026-05-04 17:17 24.73781 -155.74219 36001 ft 433 kts 217°
2026-05-04 17:18 24.64205 -155.82225 36001 ft 433 kts 217°
2026-05-04 17:19 24.54618 -155.90225 36001 ft 433 kts 217°
2026-05-04 17:20 24.45024 -155.98215 36001 ft 433 kts 217°
2026-05-04 17:20 24.37823 -156.04202 36001 ft 433 kts 217°
2026-05-04 17:21 24.28226 -156.12167 36001 ft 433 kts 217°
2026-05-04 17:22 24.23423 -156.16150 36001 ft 433 kts 217°
2026-05-04 17:23 24.13822 -156.24098 36001 ft 433 kts 217°
2026-05-04 17:24 24.06616 -156.30054 36001 ft 433 kts 217°
2026-05-04 17:24 23.99416 -156.35455 35381 ft 412 kts 213°
2026-05-04 17:25 23.96993 -156.37186 34336 ft 426 kts 213°
2026-05-04 17:25 23.91862 -156.40848 31821 ft 457 kts 213°
2026-05-04 17:26 23.86457 -156.44704 29612 ft 472 kts 213°
2026-05-04 17:26 23.78228 -156.50571 26859 ft 475 kts 213°
2026-05-04 17:27 23.72693 -156.54513 24772 ft 479 kts 213°
2026-05-04 17:27 23.67118 -156.58481 23094 ft 471 kts 213°
2026-05-04 17:28 23.61713 -156.62323 21718 ft 459 kts 213°
2026-05-04 17:29 23.53823 -156.67926 19605 ft 446 kts 213°
2026-05-04 17:29 23.46153 -156.73366 17551 ft 433 kts 213°
2026-05-04 17:30 23.38664 -156.78668 15529 ft 421 kts 213°
2026-05-04 17:31 23.33836 -156.82083 14217 ft 413 kts 213°
2026-05-04 17:31 23.26721 -156.87111 12269 ft 402 kts 213°
2026-05-04 17:32 23.22091 -156.90379 11414 ft 382 kts 213°
2026-05-04 17:33 23.15450 -156.95055 11405 ft 381 kts 213°
2026-05-04 17:33 23.13187 -156.96645 11405 ft 386 kts 213°
2026-05-04 17:34 23.06320 -157.01471 11405 ft 398 kts 213°
2026-05-04 17:34 23.03988 -157.03108 11404 ft 401 kts 213°
2026-05-04 17:35 22.96873 -157.08107 11400 ft 401 kts 213°
2026-05-04 17:35 22.92376 -157.11269 11399 ft 370 kts 213°
2026-05-04 17:35 22.90236 -157.12772 11399 ft 355 kts 213°
2026-05-04 17:36 22.88207 -157.14197 11398 ft 340 kts 213°
2026-05-04 17:36 22.86259 -157.15564 11397 ft 327 kts 213°
2026-05-04 17:36 22.84399 -157.16870 11397 ft 314 kts 213°
2026-05-04 17:36 22.82586 -157.18141 11396 ft 301 kts 213°
2026-05-04 17:37 22.80874 -157.19341 11395 ft 288 kts 213°
2026-05-04 17:37 22.79206 -157.20509 11394 ft 276 kts 213°
2026-05-04 17:37 22.77636 -157.21609 11397 ft 269 kts 213°
2026-05-04 17:37 22.76069 -157.22704 11398 ft 263 kts 213°
2026-05-04 17:38 22.74542 -157.23772 11398 ft 258 kts 213°
2026-05-04 17:38 22.73052 -157.24812 11398 ft 252 kts 213°
2026-05-04 17:38 22.71554 -157.25858 11403 ft 255 kts 213°
2026-05-04 17:38 22.70048 -157.26907 11405 ft 259 kts 213°
2026-05-04 17:39 22.67008 -157.29030 11405 ft 261 kts 213°
2026-05-04 17:39 22.65475 -157.30101 11405 ft 263 kts 213°
2026-05-04 17:39 22.63929 -157.31181 11405 ft 264 kts 213°
2026-05-04 17:40 22.62391 -157.32254 11405 ft 265 kts 213°
2026-05-04 17:40 22.60830 -157.33344 11405 ft 266 kts 213°
2026-05-04 17:40 22.59264 -157.34438 11405 ft 268 kts 213°
2026-05-04 17:40 22.57685 -157.35538 11405 ft 269 kts 213°
2026-05-04 17:41 22.56119 -157.36630 11405 ft 270 kts 213°
2026-05-04 17:41 22.54527 -157.37740 11405 ft 272 kts 213°
2026-05-04 17:41 22.52934 -157.38850 11405 ft 273 kts 213°
2026-05-04 17:41 22.51326 -157.39970 11405 ft 274 kts 213°
2026-05-04 17:42 22.49713 -157.41093 11405 ft 276 kts 213°
2026-05-04 17:42 22.48088 -157.42226 11405 ft 277 kts 213°
2026-05-04 17:42 22.46467 -157.43353 11405 ft 279 kts 213°
2026-05-04 17:42 22.44824 -157.44496 11405 ft 280 kts 213°
2026-05-04 17:43 22.43173 -157.45642 11405 ft 281 kts 213°
2026-05-04 17:43 22.41517 -157.46793 11405 ft 283 kts 213°
2026-05-04 17:43 22.39858 -157.47945 11404 ft 284 kts 213°
2026-05-04 17:43 22.38187 -157.49104 11404 ft 285 kts 213°
2026-05-04 17:44 22.36513 -157.50267 11404 ft 287 kts 213°
2026-05-04 17:44 22.34828 -157.51436 11404 ft 288 kts 213°
2026-05-04 17:44 22.33159 -157.52596 11404 ft 289 kts 213°
2026-05-04 17:44 22.31454 -157.53778 11404 ft 290 kts 213°
2026-05-04 17:45 22.29745 -157.54964 11404 ft 292 kts 213°
2026-05-04 17:45 22.28027 -157.56155 11404 ft 293 kts 213°
2026-05-04 17:45 22.26304 -157.57350 11404 ft 294 kts 213°
2026-05-04 17:45 22.24570 -157.58553 11404 ft 295 kts 213°
2026-05-04 17:46 22.22834 -157.59757 11404 ft 296 kts 213°
2026-05-04 17:46 22.21091 -157.60963 11404 ft 298 kts 213°
2026-05-04 17:46 22.19351 -157.62170 11404 ft 299 kts 213°
2026-05-04 17:46 22.17634 -157.63361 11374 ft 290 kts 213°
2026-05-04 17:47 22.15932 -157.64546 10905 ft 293 kts 213°
2026-05-04 17:47 22.14185 -157.65761 10157 ft 306 kts 213°
2026-05-04 17:47 22.12371 -157.67021 9360 ft 318 kts 213°
2026-05-04 17:47 22.10491 -157.68324 8519 ft 329 kts 213°
2026-05-04 17:48 22.08520 -157.69688 7618 ft 341 kts 213°
2026-05-04 17:48 22.06515 -157.71075 6677 ft 351 kts 213°
2026-05-04 17:48 22.04418 -157.72525 5687 ft 361 kts 213°
2026-05-04 17:48 22.02309 -157.73981 4951 ft 361 kts 213°
2026-05-04 17:49 22.00222 -157.75423 4518 ft 353 kts 213°
2026-05-04 17:49 21.98206 -157.76814 4400 ft 335 kts 213°
2026-05-04 17:49 21.96296 -157.78133 4397 ft 315 kts 213°
2026-05-04 17:49 21.94499 -157.79373 4395 ft 297 kts 213°
2026-05-04 17:50 21.92813 -157.80537 4393 ft 280 kts 213°
2026-05-04 17:50 21.91210 -157.81642 4392 ft 263 kts 213°
2026-05-04 17:50 21.89724 -157.82667 4390 ft 247 kts 213°
2026-05-04 17:50 21.88303 -157.83647 4388 ft 232 kts 213°
2026-05-04 17:51 21.87000 -157.84546 4386 ft 217 kts 213°
2026-05-04 17:51 21.85795 -157.85376 4485 ft 192 kts 213°
2026-05-04 17:51 21.84706 -157.86125 4427 ft 173 kts 213°
2026-05-04 17:51 21.83764 -157.86771 4366 ft 155 kts 211°
2026-05-04 17:52 21.82811 -157.87413 4417 ft 167 kts 212°
2026-05-04 17:52 21.81827 -157.88086 4403 ft 163 kts 213°
2026-05-04 17:52 21.80901 -157.88724 4375 ft 151 kts 213°
2026-05-04 17:52 21.80008 -157.89339 4397 ft 153 kts 213°
2026-05-04 17:53 21.79124 -157.89947 4386 ft 147 kts 213°
2026-05-04 17:53 21.78275 -157.90529 4381 ft 144 kts 212°
2026-05-04 17:53 21.77398 -157.91128 4404 ft 147 kts 213°
2026-05-04 17:53 21.76553 -157.91713 4396 ft 146 kts 213°
2026-05-04 17:54 21.75676 -157.92314 4415 ft 151 kts 212°
2026-05-04 17:54 21.74783 -157.92925 4413 ft 153 kts 212°
2026-05-04 17:54 21.73865 -157.93555 4412 ft 155 kts 213°
2026-05-04 17:54 21.72945 -157.94186 4412 ft 158 kts 213°
2026-05-04 17:55 21.72014 -157.94826 4412 ft 160 kts 213°
2026-05-04 17:55 21.71069 -157.95476 4411 ft 162 kts 213°
2026-05-04 17:55 21.70098 -157.96143 4411 ft 165 kts 213°
2026-05-04 17:55 21.69135 -157.96805 4410 ft 167 kts 213°
2026-05-04 17:56 21.68136 -157.97492 4410 ft 169 kts 213°
2026-05-04 17:56 21.67146 -157.98172 4409 ft 171 kts 213°
2026-05-04 17:56 21.66138 -157.98865 4402 ft 168 kts 213°
2026-05-04 17:56 21.65169 -157.99530 4383 ft 159 kts 213°
2026-05-04 17:57 21.64269 -158.00146 4374 ft 151 kts 212°
2026-05-04 17:57 21.63385 -158.00748 4387 ft 149 kts 212°
2026-05-04 17:57 21.62503 -158.01349 4392 ft 147 kts 212°
2026-05-04 17:57 21.61642 -158.01936 4395 ft 146 kts 212°
2026-05-04 17:58 21.60791 -158.02519 4396 ft 145 kts 212°
2026-05-04 17:58 21.59943 -158.03101 4396 ft 143 kts 213°
2026-05-04 17:58 21.59104 -158.03677 4396 ft 141 kts 213°
2026-05-04 17:58 21.58282 -158.04244 4395 ft 140 kts 213°
2026-05-04 17:59 21.57453 -158.04816 4410 ft 144 kts 213°
2026-05-04 17:59 21.56600 -158.05411 4407 ft 144 kts 214°
2026-05-04 17:59 21.54902 -158.06593 4416 ft 149 kts 213°
2026-05-04 18:00 21.54015 -158.07207 4421 ft 154 kts 213°
2026-05-04 18:00 21.53132 -158.07816 4398 ft 148 kts 213°
2026-05-04 18:00 21.52276 -158.08406 4387 ft 144 kts 213°
2026-05-04 18:00 21.51420 -158.08992 4406 ft 147 kts 213°
2026-05-04 18:01 21.50555 -158.09582 4414 ft 151 kts 213°
2026-05-04 18:01 21.49668 -158.10191 4404 ft 148 kts 214°
2026-05-04 18:01 21.48812 -158.10783 4394 ft 146 kts 214°
2026-05-04 18:02 21.47025 -158.12010 4423 ft 158 kts 214°
2026-05-04 18:02 21.46068 -158.12668 4426 ft 165 kts 214°
2026-05-04 18:02 21.45085 -158.13342 4425 ft 172 kts 214°
2026-05-04 18:02 21.44071 -158.14040 4384 ft 166 kts 214°
2026-05-04 18:03 21.43092 -158.14712 3862 ft 172 kts 213°
2026-05-04 18:03 21.42066 -158.15418 3211 ft 182 kts 213°
2026-05-04 18:03 21.40996 -158.16148 2743 ft 178 kts 213°
2026-05-04 18:03 21.40008 -158.16823 2590 ft 157 kts 213°
2026-05-04 18:04 21.39153 -158.17403 2549 ft 138 kts 212°
2026-05-04 18:04 21.38324 -158.17960 2594 ft 143 kts 213°
2026-05-04 18:04 21.36584 -158.19139 2615 ft 150 kts 213°
2026-05-04 18:05 21.35693 -158.19673 2584 ft 143 kts 199°
2026-05-04 18:05 21.34711 -158.19810 2602 ft 145 kts 174°
2026-05-04 18:05 21.33750 -158.19510 2605 ft 145 kts 151°
2026-05-04 18:05 21.33051 -158.18747 2600 ft 144 kts 116°
2026-05-04 18:06 21.32603 -158.16664 2609 ft 145 kts 95°
2026-05-04 18:06 21.32559 -158.15587 2609 ft 146 kts 91°
2026-05-04 18:06 21.32548 -158.14494 2608 ft 147 kts 90°
2026-05-04 18:07 21.32545 -158.13391 2608 ft 149 kts 90°
2026-05-04 18:07 21.32543 -158.12277 2608 ft 150 kts 90°
2026-05-04 18:07 21.32541 -158.11147 2608 ft 151 kts 90°
2026-05-04 18:07 21.32539 -158.10010 2608 ft 152 kts 90°
2026-05-04 18:08 21.32538 -158.08882 2605 ft 154 kts 90°
2026-05-04 18:08 21.32535 -158.07721 2442 ft 154 kts 90°
2026-05-04 18:08 21.32531 -158.06596 2229 ft 147 kts 90°
2026-05-04 18:08 21.32530 -158.05525 2024 ft 140 kts 90°
2026-05-04 18:09 21.32529 -158.03412 1680 ft 142 kts 90°
2026-05-04 18:09 21.32528 -158.01325 1310 ft 139 kts 90°
2026-05-04 18:10 21.32528 -158.00293 1123 ft 138 kts 90°
2026-05-04 18:10 21.32528 -157.99265 936 ft 137 kts 90°
2026-05-04 18:10 21.32527 -157.98256 753 ft 136 kts 90°
2026-05-04 18:10 21.32527 -157.97252 572 ft 134 kts 90°
2026-05-04 18:11 21.32526 -157.96249 392 ft 133 kts 90°
2026-05-04 18:11 21.32526 -157.95267 216 ft 132 kts 90°
2026-05-04 18:11 21.32526 -157.94290 44 ft 130 kts 90°
2026-05-04 18:11 21.32522 -157.93411 22 ft 100 kts 91°
2026-05-04 18:12 21.32525 -157.92879 25 ft 50 kts 91°
2026-05-04 18:12 21.32523 -157.92523 29 ft 45 kts 89°
2026-05-04 18:12 21.32571 -157.92235 28 ft 36 kts 61°
2026-05-04 18:12 21.32692 -157.92003 26 ft 34 kts 60°
2026-05-04 18:13 21.32846 -157.91832 29 ft 29 kts 30°
2026-05-04 18:13 21.32934 -157.91744 32 ft 0 kts 66°